COSMOS 2251 DEB, 40792

Orbit data source: Space-Track

COSMOS 2251 DEB, 40792 is space debris in LEO originally from a launch on Wed, 16 Jun 1993 UTC launched from the Plesetsk Missile And Space Complex (PKMTR). The debris from Iridium 33, an American commercial communications satellite, has been tracked extensively since its accidental collision with the defunct Russian satellite Cosmos 2251 in 2009. This event, occurring at high speed in low Earth orbit (LEO), generated thousands of pieces of space debris, significantly increasing the risk of further collisions. The Iridium 33 debris cloud has impacted space traffic management and orbital debris mitigation strategies, making it a subject of ongoing study in space situational awareness.

Loading next visibility...
Identifier
40792, 1993-036BVV
Orbit
LEO
Country
Flag of CISCIS
Related business
Manufacturer
Unknown
Mission
Spacecraft
Bus & Motor
Unknown
Mass
Unknown
Launch date (UTC)
1993-06-16 (33 years ago)
Launch vehicle
Unknown
Launch site
Plesetsk Missile And Space Complex (PKMTR)
Object type
Payload
Rocket body
Debris
Shape & HBR
Unknown shape, 0.1 m
Radar Cross Section
Small (<0.1 m²)

Expand to show TLE details & history
Last TLE update: 3 days ago

TLE from 3 days ago
0 COSMOS 2251 DEB
1 40792U 93036BVV 26170.34091728  .00003460  00000-0  58400-3 0  9996
2 40792  74.0435  42.6785 0017801 100.7263  20.9011 14.69742591659534
Epoch: 2026-06-19T08:10Z
TLE epoch observation values (Epoch: 2026-06-19T08:10:55.252Z)
Latitude
54.99826°
Longitude
168.41642°
Altitude
658.945 km
Speed
7.54 km/s
True Right ascension
13h 14m 52s
True Declination
54° 50' 03"
Sunlit
Object was in daylight at epoch
Visualization orbit readout
Latitude
Unknown
Longitude
Unknown
Altitude
Unknown
Speed
Unknown
Apparent Right ascension
Unknown
Apparent Declination
Unknown
Sunlit
N/A
Visualization observer readout
Local Sidereal Time
21:34:51
Azimuth
Unknown
Elevation
Unknown
Doppler factor
Unknown
Orbital elements
Apogee altitude
672.004 km
Perigee altitude
646.948 km
Semi-major axis
7,037.613 km
Eccentricity
0.00178
Inclination
74.0435°
RAAN
42.6785°
Arg. of periapsis
100.7263°
True anomaly
20.97402°
Mean anomaly
20.9011°
Eccentric anomaly
20.93755°
Mean motion
3.67625 °/min
Orbital period
97.93 mins
BSTAR
0.000584
Loading maneuver chart data...
Computing Atmospheric mass density...

Documentation

Showing up to 5 results
|